Tracking 19193 objects as of 24-Jun-2018
HD Live streaming from Space Station
objects crossing your sky now

FENGYUN 1C DEB

Track FENGYUN 1C DEB now!
10-day predictions


NORAD ID: 37894
Int'l Code: 1999-025EMT
Perigee: 655.3 km
Apogee: 803.3 km
Inclination: 99.0 °
Period: 99.2 minutes
Semi major axis: 7100 km
RCS: 0.0011 m2 (small)
Launch date: May 10, 1999
Source: People's Republic of China (PRC)
Launch site: Taiyaun Space Center, China (TSC)

Note: This is SATELLITE DEBRIS
aabbcc
Your satellite tracking list
Your tracking list is empty




NASA's NSSDC Master Catalog

Two Line Element Set (TLE):
1 37894U 99025EMT 18174.72683565  .00002597  00000-0  62416-3 0  9994
2 37894  99.0167   8.5611 0104166 174.1554 186.0881 14.51070277413386
Source of the keplerian elements: AFSPC